FW6919 Weather Reports


Display with metric or nautical units.
time (UTC)temp
F
wind
direction
speed
MPH
gust
MPH
rain 1hr
in
rain 24hr
in
rain mn
in
humidity
%
barometer
mb
20260510051530 78 23 3.0 10.0 0.00 0.00 0.00 69 1010.0
20260510051031 78 19 4.0 10.0 0.00 0.00 0.00 69 1009.9
20260510050529 78 21 4.0 10.0 0.00 0.00 0.00 68 1009.9
20260510050031 78 20 3.0 13.0 0.00 0.00 0.00 68 1009.7
20260510045529 78 21 4.0 13.0 0.00 0.00 0.00 68 1009.4
20260510045029 78 24 4.0 13.0 0.00 0.00 0.00 68 1009.3
20260510044529 78 24 5.0 12.0 0.00 0.00 0.00 67 1009.1
20260510044029 78 26 5.0 12.0 0.00 0.00 0.00 67 1009.2
20260510043530 78 24 5.0 12.0 0.00 0.00 0.00 67 1009.1
20260510043028 78 130 8.0 12.0 0.00 0.00 0.00 66 1009.4
20260510042530 78 132 12.0 12.0 0.00 0.00 0.00 66 1009.5
20260510042028 79 144 5.0 12.0 0.00 0.00 0.00 65 1009.6
20260510041528 79 147 6.0 11.0 0.00 0.00 0.00 65 1009.9
20260510041027 79 138 8.0 10.0 0.00 0.00 0.00 65 1009.8
20260510040528 79 138 5.0 11.0 0.00 0.00 0.00 64 1009.7
20260510040030 79 165 6.0 11.0 0.00 0.00 0.00 64 1009.8
20260510035526 79 142 5.0 11.0 0.00 0.00 0.00 64 1009.8
20260510035027 79 158 5.0 10.0 0.00 0.00 0.00 64 1009.8
20260510034530 79 136 5.0 8.0 0.00 0.00 0.00 64 1009.9
20260510034027 79 161 5.0 9.0 0.00 0.00 0.00 63 1009.9
20260510033526 79 128 3.0 9.0 0.00 0.00 0.00 63 1009.9
20260510033026 79 128 3.0 7.0 0.00 0.00 0.00 62 1009.9
20260510032526 79 116 6.0 7.0 0.00 0.00 0.00 62 1009.9
20260510032028 79 118 4.0 7.0 0.00 0.00 0.00 62 1010.0
20260510031528 79 125 2.0 8.0 0.00 0.00 0.00 62 1010.2
20260510031025 79 140 2.0 8.0 0.00 0.00 0.00 62 1010.0
20260510030527 79 140 4.0 7.0 0.00 0.00 0.00 62 1010.0
20260510030026 79 128 2.0 5.0 0.00 0.00 0.00 62 1009.9
20260510025525 79 123 2.0 6.0 0.00 0.00 0.00 62 1010.1
20260510025027 80 123 3.0 6.0 0.00 0.00 0.00 62 1010.0
20260510024526 80 123 3.0 5.0 0.00 0.00 0.00 61 1010.0
20260510024027 80 124 2.0 4.0 0.00 0.00 0.00 61 1010.0
20260510023526 80 123 1.0 5.0 0.00 0.00 0.00 61 1009.9
20260510023025 81 126 3.0 6.0 0.00 0.00 0.00 60 1009.8
20260510022526 81 129 3.0 6.0 0.00 0.00 0.00 60 1009.7
20260510022025 81 116 2.0 7.0 0.00 0.00 0.00 59 1009.7
20260510021525 82 129 2.0 7.0 0.00 0.00 0.00 59 1009.6
20260510021026 82 132 3.0 7.0 0.00 0.00 0.00 59 1009.4
20260510020525 82 136 4.0 8.0 0.00 0.00 0.00 59 1009.3
20260510020024 82 139 3.0 8.0 0.00 0.00 0.00 59 1009.2
20260510015525 82 148 4.0 10.0 0.00 0.00 0.00 58 1009.1
20260510015024 83 129 4.0 10.0 0.00 0.00 0.00 59 1009.2
20260510014524 82 140 5.0 10.0 0.00 0.00 0.00 59 1009.1
20260510014025 82 142 5.0 8.0 0.00 0.00 0.00 59 1009.0
20260510013522 82 118 6.0 8.0 0.00 0.00 0.00 59 1008.9
20260510013025 82 127 3.0 6.0 0.00 0.00 0.00 58 1008.9
20260510012522 82 127 5.0 6.0 0.00 0.00 0.00 57 1008.8
20260510012024 83 109 2.0 4.0 0.00 0.00 0.00 56 1008.7
20260510011523 83 107 2.0 4.0 0.00 0.00 0.00 57 1008.6
20260510011022 84 107 2.0 4.0 0.00 0.00 0.00 56 1008.5
20260510010524 84 106 3.0 3.0 0.00 0.00 0.00 55 1008.5
20260510010022 84 106 1.0 4.0 0.00 0.00 0.00 55 1008.5
20260510005522 85 106 2.0 6.0 0.00 0.00 0.00 53 1008.4
20260510005021 85 105 2.0 6.0 0.00 0.00 0.00 52 1008.4
20260510004521 85 105 3.0 4.0 0.00 0.00 0.00 52 1008.3
20260510004021 86 104 3.0 4.0 0.00 0.00 0.00 52 1008.3
20260510003522 86 109 2.0 4.0 0.00 0.00 0.00 52 1008.4
20260510003022 86 103 2.0 4.0 0.00 0.00 0.00 51 1008.4
20260510002523 87 103 2.0 4.0 0.00 0.00 0.00 51 1008.4
20260510002020 87 107 3.0 6.0 0.00 0.00 0.00 51 1008.3
20260510001520 87 110 1.0 6.0 0.00 0.00 0.00 51 1008.4
20260510001020 87 91 3.0 9.0 0.00 0.00 0.00 50 1008.4
20260510000518 87 76 1.0 9.0 0.00 0.00 0.00 51 1008.4
20260510000023 88 84 2.0 9.0 0.00 0.00 0.00 50 1008.4
20260509235519 88 92 3.0 6.0 0.00 0.00 0.00 50 1008.6
20260509235020 88 98 1.0 7.0 0.00 0.00 0.00 49 1008.5
20260509234520 88 118 1.0 7.0 0.00 0.00 0.00 49 1008.6
20260509234021 88 118 3.0 7.0 0.00 0.00 0.00 49 1008.7
20260509233520 88 130 3.0 5.0 0.00 0.00 0.00 49 1008.8
20260509233019 88 74 2.0 7.0 0.00 0.00 0.00 49 1008.7
20260509232521 88 116 3.0 8.0 0.00 0.00 0.00 49 1008.8
20260509232019 88 62 5.0 8.0 0.00 0.00 0.00 49 1008.7
20260509231518 88 109 1.0 6.0 0.00 0.00 0.00 50 1008.7
20260509231018 88 140 3.0 7.0 0.00 0.00 0.00 51 1008.7
20260509230519 88 81 2.0 7.0 0.00 0.00 0.00 51 1008.7
20260509230018 88 91 1.0 7.0 0.00 0.00 0.00 50 1008.7
20260509225517 88 96 2.0 8.0 0.00 0.00 0.00 50 1008.7
20260509225018 88 62 1.0 8.0 0.00 0.00 0.00 51 1008.7
20260509224519 88 78 4.0 8.0 0.00 0.00 0.00 51 1008.7
20260509224016 88 33 2.0 10.0 0.00 0.00 0.00 51 1008.7
20260509223516 88 64 6.0 10.0 0.00 0.00 0.00 50 1008.7
20260509223016 88 65 4.0 10.0 0.00 0.00 0.00 51 1008.7
20260509222517 88 82 2.0 11.0 0.00 0.00 0.00 50 1008.8
20260509222018 88 32 5.0 11.0 0.00 0.00 0.00 52 1008.7
20260509221518 88 360 2.0 10.0 0.00 0.00 0.00 51 1008.7
20260509221017 88 51 10.0 10.0 0.00 0.00 0.00 51 1008.7
20260509220516 88 26 6.0 9.0 0.00 0.00 0.00 50 1008.8
20260509220017 88 55 6.0 10.0 0.00 0.00 0.00 51 1008.8
20260509215514 88 87 3.0 10.0 0.00 0.00 0.00 51 1008.8
20260509215022 88 63 8.0 9.0 0.00 0.00 0.00 52 1008.8
20260509214517 88 96 7.0 9.0 0.00 0.00 0.00 51 1008.9
20260509214016 89 96 2.0 9.0 0.00 0.00 0.00 51 1008.9
20260509213515 88 63 2.0 7.0 0.00 0.00 0.00 52 1008.8
20260509213015 88 0 0.0 11.0 0.00 0.00 0.00 54 1008.9
20260509212516 88 121 5.0 11.0 0.00 0.00 0.00 53 1009.0
20260509212016 88 140 4.0 11.0 0.00 0.00 0.00 53 1009.1
20260509211515 88 0 0.0 8.0 0.00 0.00 0.00 54 1009.1
20260509211013 88 153 5.0 8.0 0.00 0.00 0.00 53 1009.1
20260509210516 89 55 5.0 8.0 0.00 0.00 0.00 52 1009.3
20260509210015 89 49 4.0 7.0 0.00 0.00 0.00 53 1009.4
20260509205513 89 41 3.0 9.0 0.00 0.00 0.00 54 1009.5
20260509205012 88 77 1.0 9.0 0.00 0.00 0.00 55 1009.6
20260509204515 88 78 4.0 9.0 0.00 0.00 0.00 55 1009.7
20260509204013 88 67 3.0 9.0 0.00 0.00 0.00 54 1009.7
20260509203513 89 30 5.0 7.0 0.00 0.00 0.00 54 1009.8
20260509203014 88 0 0.0 7.0 0.00 0.00 0.00 53 1009.8
20260509202515 89 61 3.0 7.0 0.00 0.00 0.00 53 1010.0
20260509202013 88 26 1.0 6.0 0.00 0.00 0.00 51 1010.0
20260509201513 88 43 6.0 9.0 0.00 0.00 0.00 53 1010.1
20260509201012 88 53 1.0 9.0 0.00 0.00 0.00 54 1010.1
20260509200513 88 138 2.0 9.0 0.00 0.00 0.00 53 1010.1
20260509200012 88 51 2.0 8.0 0.00 0.00 0.00 52 1010.2
20260509195513 88 56 3.0 8.0 0.00 0.00 0.00 53 1010.3
20260509195010 88 320 1.0 8.0 0.00 0.00 0.00 53 1010.3
20260509194512 87 96 3.0 10.0 0.00 0.00 0.00 54 1010.4
20260509194013 88 131 4.0 10.0 0.00 0.00 0.00 52 1010.4
20260509193512 88 73 2.0 9.0 0.00 0.00 0.00 52 1010.4
20260509193014 88 69 3.0 9.0 0.00 0.00 0.00 55 1010.4
20260509192513 87 269 1.0 10.0 0.00 0.00 0.00 54 1010.5
20260509192012 87 0 0.0 10.0 0.00 0.00 0.00 52 1010.5
20260509191516 88 30 4.0 10.0 0.00 0.00 0.00 52 1010.6
20260509191012 87 0 0.0 7.0 0.00 0.00 0.00 53 1010.6
20260509190512 87 329 2.0 9.0 0.00 0.00 0.00 53 1010.7
20260509190010 87 15 1.0 9.0 0.00 0.00 0.00 53 1010.7
20260509185516 87 321 4.0 8.0 0.00 0.00 0.00 54 1010.8
20260509185012 87 5 3.0 6.0 0.00 0.00 0.00 55 1010.8
20260509184514 86 60 2.0 9.0 0.00 0.00 0.00 54 1010.8
20260509184014 86 57 5.0 9.0 0.00 0.00 0.00 54 1010.9
20260509183512 87 17 4.0 9.0 0.00 0.00 0.00 55 1010.9
20260509183014 86 28 4.0 10.0 0.00 0.00 0.00 55 1011.1
20260509182515 86 16 3.0 10.0 0.00 0.00 0.00 54 1011.2
20260509182010 85 316 6.0 8.0 0.00 0.00 0.00 56 1011.1
20260509181512 85 344 3.0 10.0 0.00 0.00 0.00 55 1011.2
20260509181011 85 58 4.0 10.0 0.00 0.00 0.00 56 1011.2
20260509180510 85 38 5.0 9.0 0.00 0.00 0.00 55 1011.3
20260509180013 85 348 5.0 9.0 0.00 0.00 0.00 56 1011.3
20260509175513 85 36 4.0 11.0 0.00 0.00 0.00 56 1011.4
20260509175010 85 10 5.0 11.0 0.00 0.00 0.00 55 1011.3
20260509174512 85 34 4.0 11.0 0.00 0.00 0.00 55 1011.4
20260509174013 86 352 4.0 9.0 0.00 0.00 0.00 55 1011.5
20260509173514 85 30 4.0 11.0 0.00 0.00 0.00 56 1011.4
20260509173013 84 330 3.0 11.0 0.00 0.00 0.00 55 1011.5
20260509172513 84 303 9.0 11.0 0.00 0.00 0.00 55 1011.5
20260509172014 84 323 6.0 11.0 0.00 0.00 0.00 56 1011.5
20260509171512 84 290 7.0 11.0 0.00 0.00 0.00 55 1011.6
20260509171011 84 336 6.0 11.0 0.00 0.00 0.00 55 1011.7
20260509170511 84 321 8.0 13.0 0.00 0.00 0.00 55 1011.6
20260509170011 84 352 4.0 13.0 0.00 0.00 0.00 55 1011.7
20260509165513 83 304 5.0 13.0 0.00 0.00 0.00 55 1011.7
20260509165012 83 309 7.0 12.0 0.00 0.00 0.00 56 1011.8
20260509164513 83 19 8.0 14.0 0.00 0.00 0.00 56 1011.8
20260509164013 83 339 3.0 14.0 0.00 0.00 0.00 56 1011.8
20260509163511 83 314 8.0 14.0 0.00 0.00 0.00 55 1011.9
20260509163010 83 322 12.0 14.0 0.00 0.00 0.00 56 1011.9
20260509162512 83 323 5.0 12.0 0.00 0.00 0.00 58 1011.8
20260509162010 82 303 7.0 12.0 0.00 0.00 0.00 57 1011.8
20260509161513 82 24 9.0 12.0 0.00 0.00 0.00 58 1011.8
20260509161011 82 40 5.0 13.0 0.00 0.00 0.00 57 1011.8
20260509160515 82 325 9.0 13.0 0.00 0.00 0.00 58 1011.8
20260509160013 82 335 5.0 11.0 0.00 0.00 0.00 59 1011.8
20260509155511 81 5 5.0 14.0 0.00 0.00 0.00 60 1011.7
20260509155013 81 15 9.0 15.0 0.00 0.00 0.00 61 1011.6
20260509154513 81 329 11.0 15.0 0.00 0.00 0.00 61 1011.6
20260509154021 80 52 5.0 13.0 0.00 0.00 0.00 61 1011.6
20260509153520 80 308 5.0 15.0 0.00 0.00 0.00 61 1011.6
20260509153020 79 351 6.0 15.0 0.00 0.00 0.00 61 1011.6
20260509152518 79 302 12.0 14.0 0.00 0.00 0.00 61 1011.6
20260509152019 79 333 9.0 14.0 0.00 0.00 0.00 63 1011.6
20260509151518 79 303 5.0 13.0 0.00 0.00 0.00 63 1011.7
20260509151021 78 323 9.0 12.0 0.00 0.00 0.00 65 1011.8
20260509150519 78 313 6.0 13.0 0.00 0.00 0.00 66 1011.8
20260509150019 78 316 5.0 14.0 0.00 0.00 0.00 66 1011.9
20260509145518 78 294 5.0 14.0 0.00 0.00 0.00 68 1011.9
20260509145020 77 327 12.0 14.0 0.00 0.00 0.00 69 1011.8
20260509144519 77 279 12.0 14.0 0.00 0.00 0.00 70 1011.9
20260509144021 77 327 9.0 11.0 0.00 0.00 0.00 71 1011.8
20260509143518 77 309 10.0 12.0 0.00 0.00 0.00 72 1011.8
20260509143018 76 348 5.0 12.0 0.00 0.00 0.00 72 1011.9
20260509142518 76 312 8.0 12.0 0.00 0.00 0.00 73 1011.8
20260509142018 76 5 8.0 11.0 0.00 0.00 0.00 74 1011.8
20260509141517 76 300 9.0 11.0 0.00 0.00 0.00 75 1011.7
20260509141017 75 360 4.0 11.0 0.00 0.00 0.00 75 1011.8
20260509140516 75 335 4.0 11.0 0.00 0.00 0.00 76 1011.8
20260509140017 75 328 4.0 11.0 0.00 0.00 0.00 77 1011.9
20260509135516 74 331 9.0 12.0 0.00 0.00 0.00 79 1011.9
20260509135016 74 333 8.0 12.0 0.00 0.00 0.00 80 1011.8
20260509134516 73 323 8.0 12.0 0.00 0.00 0.00 81 1011.8
20260509134016 73 346 5.0 10.0 0.00 0.00 0.00 82 1011.7
20260509133516 72 325 5.0 13.0 0.00 0.00 0.00 84 1011.8
20260509133016 72 324 4.0 13.0 0.00 0.00 0.00 84 1011.8
20260509132516 72 323 9.0 13.0 0.00 0.00 0.00 85 1011.6
20260509132015 71 309 4.0 13.0 0.00 0.00 0.00 85 1011.7
20260509131515 71 310 7.0 13.0 0.00 0.00 0.00 86 1011.6
20260509131015 71 324 8.0 10.0 0.00 0.00 0.00 87 1011.6
20260509130514 70 312 6.0 9.0 0.00 0.00 0.00 88 1011.7
20260509130014 70 340 3.0 9.0 0.00 0.00 0.00 89 1011.8
20260509125515 70 319 4.0 9.0 0.00 0.00 0.00 89 1011.6
20260509125016 69 69 4.0 10.0 0.00 0.00 0.00 89 1011.8
20260509124513 69 293 4.0 10.0 0.00 0.00 0.00 89 1011.6
20260509124015 69 328 6.0 9.0 0.00 0.00 0.00 89 1011.7
20260509123514 69 324 4.0 8.0 0.00 0.00 0.00 89 1011.7
20260509123014 69 360 2.0 5.0 0.00 0.00 0.00 89 1011.6
20260509122515 69 331 5.0 5.0 0.00 0.00 0.00 89 1011.6
20260509122013 69 303 2.0 7.0 0.00 0.00 0.00 89 1011.7
20260509121514 69 288 3.0 7.0 0.00 0.00 0.00 89 1011.5
20260509121013 69 294 3.0 8.0 0.00 0.00 0.00 89 1011.4
20260509120514 69 288 4.0 8.0 0.00 0.00 0.00 88 1011.4
20260509120013 68 281 4.0 9.0 0.00 0.00 0.00 88 1011.3
20260509115513 69 296 4.0 9.0 0.00 0.00 0.00 88 1011.4
20260509115014 69 321 4.0 8.0 0.00 0.00 0.00 87 1011.3
20260509114513 69 346 3.0 8.0 0.00 0.00 0.00 87 1011.2
20260509114015 69 325 2.0 8.0 0.00 0.00 0.00 86 1011.2
20260509113515 69 317 2.0 9.0 0.00 0.00 0.00 86 1011.1
20260509113014 69 299 7.0 12.0 0.00 0.00 0.00 85 1010.9
20260509112513 69 300 5.0 12.0 0.00 0.00 0.00 85 1010.9
20260509112011 70 312 11.0 12.0 0.00 0.00 0.00 83 1010.5
20260509111510 70 292 9.0 10.0 0.00 0.00 0.00 82 1010.6
20260509111013 70 288 4.0 8.0 0.00 0.00 0.00 82 1010.6
20260509110512 70 304 4.0 8.0 0.00 0.00 0.00 82 1010.2
20260509110011 70 297 2.0 8.0 0.00 0.00 0.00 82 1010.2
20260509105511 70 295 4.0 8.0 0.00 0.00 0.00 82 1010.0
20260509105012 70 290 4.0 8.0 0.00 0.00 0.00 81 1010.0
20260509104512 70 277 2.0 7.0 0.00 0.00 0.00 81 1010.2
20260509104012 70 254 2.0 7.0 0.00 0.00 0.00 81 1010.0
20260509103511 70 288 1.0 8.0 0.00 0.00 0.00 80 1010.0
20260509103011 70 0 0.0 8.0 0.00 0.00 0.00 80 1010.0
20260509102512 71 255 5.0 8.0 0.00 0.00 0.00 79 1010.0
20260509102015 71 280 3.0 4.0 0.00 0.00 0.00 79 1009.9
20260509101514 71 281 2.0 7.0 0.00 0.00 0.00 78 1009.9
20260509101015 71 288 3.0 7.0 0.00 0.00 0.00 78 1010.0
20260509100512 72 300 5.0 7.0 0.00 0.00 0.00 77 1010.0
20260509100013 72 287 3.0 9.0 0.00 0.00 0.00 76 1009.8
20260509095514 72 295 3.0 9.0 0.00 0.00 0.00 76 1009.8
20260509095012 72 323 4.0 9.0 0.00 0.00 0.00 75 1009.6
20260509094513 72 304 8.0 9.0 0.00 0.00 0.00 75 1009.3
20260509094012 72 331 6.0 9.0 0.00 0.00 0.00 76 1009.4
20260509093512 71 313 8.0 5.0 0.00 0.00 0.00 79 1009.1
20260509093014 71 323 1.0 4.0 0.00 0.00 0.00 81 1009.0
20260509092512 71 0 0.0 3.0 0.00 0.00 0.00 82 1009.1
20260509092013 72 0 0.0 10.0 0.00 0.00 0.00 82 1009.1
20260509091510 72 0 0.0 12.0 0.00 0.00 0.00 82 1009.0
20260509091013 72 340 1.0 12.0 0.00 0.00 0.00 83 1009.1
20260509090513 71 31 4.0 14.0 0.00 0.00 0.00 85 1008.8
20260509090013 71 0 0.0 14.0 0.00 0.00 0.00 86 1008.4
20260509085510 71 338 6.0 14.0 0.00 0.00 0.00 87 1008.5
20260509085011 71 235 3.0 15.0 0.00 0.00 0.00 88 1007.8
20260509084516 71 220 9.0 15.0 0.00 0.00 0.00 88 1007.9
20260509084018 71 157 9.0 16.0 0.00 0.00 0.00 88 1007.8
20260509083515 71 177 7.0 16.0 0.00 0.00 0.00 88 1007.4
20260509083017 70 192 7.0 15.0 0.00 0.00 0.00 88 1007.5
20260509082514 70 195 6.0 15.0 0.00 0.00 0.00 87 1007.7
20260509082016 70 221 5.0 12.0 0.00 0.00 0.00 87 1007.3
20260509081515 70 192 7.0 7.0 0.00 0.00 0.00 88 1007.3
20260509081015 70 177 3.0 13.0 0.00 0.00 0.00 89 1007.5
20260509080514 70 200 1.0 13.0 0.00 0.00 0.00 89 1008.1
20260509080015 70 178 5.0 10.0 0.00 0.00 0.00 89 1008.6
20260509075513 70 206 6.0 11.0 0.00 0.00 0.00 89 1009.0
20260509075016 70 223 5.0 11.0 0.00 0.00 0.00 88 1009.5
20260509074514 70 212 9.0 10.0 0.00 0.00 0.00 89 1009.8
20260509074014 70 209 6.0 11.0 0.00 0.00 0.00 89 1010.0
20260509073516 70 206 7.0 14.0 0.00 0.00 0.00 89 1010.4
20260509073014 70 217 7.0 14.0 0.00 0.00 0.00 89 1010.5
20260509072514 70 246 2.0 13.0 0.00 0.00 0.00 89 1010.9
20260509072013 70 265 4.0 13.0 0.00 0.00 0.00 88 1010.7
20260509071513 71 208 6.0 11.0 0.00 0.00 0.00 88 1011.0
20260509071013 71 218 6.0 11.0 0.00 0.00 0.00 88 1011.3
20260509070515 71 209 4.0 12.0 0.00 0.00 0.00 89 1011.6
20260509070013 71 229 9.0 12.0 0.00 0.00 0.00 89 1011.6
20260509065512 70 231 7.0 10.0 0.00 0.00 0.00 89 1011.8
20260509065014 70 225 3.0 8.0 0.00 0.00 0.00 90 1011.8
20260509064514 70 242 3.0 8.0 0.00 0.00 0.00 90 1012.1
20260509064014 70 286 1.0 8.0 0.00 0.00 0.00 90 1012.2
20260509063513 70 275 4.0 5.0 0.00 0.00 0.00 89 1012.1
20260509063012 70 253 4.0 5.0 0.00 0.00 0.00 89 1012.0
20260509062512 70 0 0.0 6.0 0.00 0.00 0.00 89 1012.1
20260509062013 70 261 3.0 6.0 0.00 0.00 0.00 89 1012.1
20260509061512 70 261 3.0 4.0 0.00 0.00 0.00 89 1012.1
20260509061014 70 230 2.0 4.0 0.00 0.00 0.00 89 1012.2
20260509060511 70 229 1.0 4.0 0.00 0.00 0.00 88 1012.0
20260509060015 70 0 0.0 6.0 0.00 0.00 0.00 88 1012.1
20260509055512 70 230 1.0 6.0 0.00 0.00 0.00 88 1012.0
20260509055010 70 259 4.0 6.0 0.00 0.00 0.00 87 1011.8
20260509054511 71 341 1.0 2.0 0.00 0.00 0.00 87 1012.2
20260509054013 71 0 0.0 2.0 0.00 0.00 0.00 86 1012.3
20260509053510 71 341 1.0 2.0 0.00 0.00 0.00 86 1012.1
20260509053010 71 0 0.0 3.0 0.00 0.00 0.00 86 1012.3
20260509052513 71 0 0.0 4.0 0.00 0.00 0.00 86 1012.3
20260509052013 71 341 2.0 4.0 0.00 0.00 0.00 86 1012.5